Regional Weather Roundup
Issued by NWS

Home | Current Version | Previous Version | Text Only | Print | Product List | Glossary Off
Versions: 1 2 3 4 5 6 7 8 9 10 11 12 13 14 15 16 17 18 19 20 21 22 23 24 25 26 27

000
ASUS45 KPSR 230210
RWRAZ

ARIZONA HOURLY REGIONAL WEATHER ROUNDUP
NATIONAL WEATHER SERVICE PHOENIX AZ
700 PM MST WED MAR 22 2017

NOTE: FAIR INDICATES FEW OR NO CLOUDS BELOW 12,000 FEET WITH NO
SIGNIFICANT WEATHER AND/OR OBSTRUCTIONS TO VISIBILITY.

AZZ001>003-036-230300-
NORTHWEST ARIZONA

CITY           SKY/WX    TMP DP  RH WIND       PRES   REMARKS
BULLHEAD CITY  CLOUDY    68  48  49 E7        29.78F
KINGMAN        LGT RAIN  50  43  77 S12       29.89F
$$

AZZ004>008-015-016-018-230300-
NORTH CENTRAL ARIZONA

CITY           SKY/WX    TMP DP  RH WIND       PRES   REMARKS
GRAND CANYON   TSTM      44  41  89 SW23      29.92R FOG
WILLIAMS       CLOUDY    48  39  71 SW16      29.90F
PRESCOTT       MOCLDY    56  42  59 S17G24    29.88F
FLAGSTAFF      CLOUDY    47  38  71 S10       29.94F
PAYSON         MOCLDY    59  37  44 S6        29.96F
PAGE           CLOUDY    57  32  38 NE5       29.80F
$$

AZZ009>014-017-230300-
NORTHEAST ARIZONA

CITY           SKY/WX    TMP DP  RH WIND       PRES   REMARKS
WINSLOW        MOCLDY    62  24  23 S14       29.88F
SAINT JOHNS    MOCLDY    64  25  22 SW16G23   29.92S
WINDOW ROCK    CLOUDY    59  17  19 SW9       29.97F
SHOW LOW       MOCLDY    55  18  22 SW13      30.01S
$$

AZZ023-230300-
GREATER PHOENIX AREA

CITY           SKY/WX    TMP DP  RH WIND       PRES   REMARKS
PHOENIX        MOCLDY    78  46  32 W14       29.78S
BUCKEYE        MOCLDY    73  45  35 NW26G32   29.82R
GLENDALE       MOCLDY    77  46  33 SW8       29.81R
LUKE AFB       PTCLDY    76  46  34 SW13      29.77F
DEER VALLEY    MOCLDY    75  49  39 SW10      29.80R
SCOTTSDALE     CLOUDY    76  47  35 W6        29.82R
MESA-FALCON    PTCLDY   N/A N/A N/A W7        29.78R
MESA-GATEWAY   PTCLDY    75  48  38 W10       29.82R
CHANDLER       CLEAR     77  48  36 SW9       29.81R
$$

AZZ027-028-230300-
SOUTHWEST MARICOPA COUNTY AND PINAL COUNTY

CITY           SKY/WX    TMP DP  RH WIND       PRES   REMARKS
CASA GRANDE    NOT AVBL
GILA BEND      MOCLDY    69  51  52 W25G31    29.82R BLWGDUST
$$

AZZ503-504-507>509-230300-
SOUTHEAST ARIZONA

CITY           SKY/WX    TMP DP  RH WIND       PRES   REMARKS
TUCSON         PTCLDY    78  25  14 SW12      29.88S
DAVIS-MONTHAN  PTCLDY    77  25  14 SW7       29.87S
RYAN FIELD     CLEAR     79  27  14 S18G26    29.87F
NOGALES        PTCLDY    70  27  20 SW13      29.96S
SIERRA VISTA   CLEAR     71  22  16 SW15G24   29.99S
DOUGLAS        CLEAR     74  17  11 SW15      29.96R
SAFFORD        MOCLDY    76  27  16 NW14      29.84R
$$

AZZ020-021-025-026-031-230300-
SOUTHWEST ARIZONA

CITY           SKY/WX    TMP DP  RH WIND       PRES   REMARKS
YUMA           CLOUDY    64  54  69 CALM      29.87F
$$

CAZ031-033-041-043-047-048-061-230300-
SOUTHERN CALIFORNIA

CITY           SKY/WX    TMP DP  RH WIND       PRES   REMARKS
DOWNTOWN L.A.  PTCLDY    61  52  72 W7        29.95S
L.A. AIRPORT   PTCLDY    60  54  80 SW16G24   29.96S
SAN DIEGO      LGT RAIN  63  52  67 NW10      30.03R
BURBANK        CLEAR     62  44  51 W13       29.94S
ONTARIO        PTCLDY    58  48  69 SW10G23   29.95R
RIVERSIDE      MOCLDY    58  48  69 W20       29.95R
PALM SPRINGS   PTCLDY    69  42  37 W15G24    29.84R
EL CENTRO NAS  MOCLDY    66  38  35 W24       29.89R
IMPERIAL       PTCLDY    67  39  35 SW23G32   29.84S
BLYTHE         CLOUDY    70  41  34 SW15G28   29.81F
NEEDLES        CLOUDY    70  39  32 W3        29.80R
$$

NVZ020-UTZ003-230300-
SOUTHERN NEVADA-UTAH

CITY           SKY/WX    TMP DP  RH WIND       PRES   REMARKS
LAS VEGAS      CLOUDY    67  13  12 S10       29.75S
SALT LAKE CITY CLOUDY    53  44  71 W5        29.76S
$$

NMZ009-TXZ055-230300-
NEW MEXICO-WEST TEXAS

CITY           SKY/WX    TMP DP  RH WIND       PRES   REMARKS
ALBUQUERQUE    CLEAR     74  11   9 S17G25    29.93R
EL PASO        PTCLDY    83   7   5 W9        29.89R
$$


........................KEY........................
SKY/WX - SKY CONDITION/WEATHER
TMP    - TEMPERATURE IN FAHRENHEIT
DP     - DEW POINT IN FAHRENHEIT
RH     - RELATIVE HUMIDITY IN PERCENT
WIND   - DIRECTION AND SPEED IN MILES PER HOUR (MPH)
VRB    - VARIABLE WIND DIRECTION
PRES   - MEAN SEA LEVEL PRESSURE IN INCHES OF MERCURY
         F - FALLING PRESSURE   R - RISING PRESSURE
         S - STEADY PRESSURE
VSB    - VISIBILITY IN MILES
HX     - HEAT INDEX IN FAHRENHEIT
WCI    - WIND CHILL INDEX IN FAHRENHEIT
TC     - TEMPERATURE IN CELSIUS WHICH IS ALSO KNOWN AS
         TEMPERATURE IN CENTIGRADE
AFB    - AIR FORCE BASE
         LUKE AFB IS LUKE AIR FORCE BASE
         DAVIS-MONTHAN IS DAVIS-MONTHAN AIR FORCE BASE
NAS    - NAVAL AIR STATION
         EL CENTRO NAS IS EL CENTRO NAVAL AIR STATION
N/A    - NOT AVAILABLE





USA.gov is the U.S. government's official web portal to all federal, state and local government web resources and services.